Change the Weather History Date:

Wednesday, March 27, 2013

  Actual Average Record
Temperature  
Mean Temperature 66 °F 73 °F  
Max Temperature 72 °F 84 °F 102 °F (2009)
Min Temperature 60 °F 62 °F 39 °F (1955)
Degree Days  
Heating Degree Days 0 1  
Month to date heating degree days 16 38  
Since 1 July heating degree days 312 571  
Cooling Degree Days 1 9  
Month to date cooling degree days 175 181  
Year to date cooling degree days 424 340  
Growing Degree Days 16 (Base 50)    
Moisture  
Dew Point 49 °F    
Average Humidity 59    
Maximum Humidity 68    
Minimum Humidity 49    
Precipitation  
Precipitation 0.00 in 0.04 in 1.80 in (1999)
Month to date precipitation T 0.91  
Year to date precipitation 0.99 3.07  
Sea Level Pressure  
Sea Level Pressure 30.23 in    
Wind  
Wind Speed 13 mph (ESE)    
Max Wind Speed 23 mph    
Max Gust Speed 29 mph    
Visibility 10 miles    
Events      
T = Trace of Precipitation, MM = Missing Value Source: NWS Daily Summary

Daily Weather History Graph

Daily Weather History Graph

Search for Another Location

Airport or City:

Trip Planner

Search our weather history database for the weather conditions in past years. The results will help you decide how hot, cold, wet, or windy it might be!

Date:

Astronomy

Mar. 27, 2013 Rise Set
Actual Time 7:29 AM CDT 7:47 PM CDT
Civil Twilight 7:05 AM CDT 8:10 PM CDT
Nautical Twilight 6:38 AM CDT 8:37 PM CDT
Astronomical Twilight 6:11 AM CDT 9:05 PM CDT
Moon 8:24 PM CDT (3/27) 7:25 AM CDT (3/27)
Length of Visible Light 13h 04m
Length of Day
12h 18m
Full, 100% of the Moon is Illuminated
Mar 27
Full
Apr 2
Last Quarter
Apr 10
New
Apr 18
First Quarter
Apr 25
Full

Hourly Weather History & Observations

Time (CDT) Temp. Dew Point Humidity Pressure Visibility Wind Dir Wind Speed Gust Speed Precip Events Conditions
12:53 AM 60.1 °F 41.0 °F 49% 30.33 in 10.0 mi ESE 8.1 mph - N/A   Overcast
1:53 AM 60.1 °F 42.1 °F 51% 30.30 in 10.0 mi East 8.1 mph - N/A   Overcast
2:53 AM 60.1 °F 43.0 °F 53% 30.28 in 10.0 mi East 8.1 mph - N/A   Overcast
3:53 AM 60.1 °F 43.0 °F 53% 30.25 in 10.0 mi ESE 8.1 mph - N/A   Overcast
4:53 AM 60.1 °F 44.1 °F 55% 30.25 in 10.0 mi ESE 6.9 mph - N/A   Overcast
5:53 AM 60.1 °F 45.0 °F 57% 30.24 in 10.0 mi East 6.9 mph - N/A   Overcast
6:53 AM 61.0 °F 45.0 °F 56% 30.25 in 10.0 mi ESE 6.9 mph - N/A   Overcast
7:53 AM 61.0 °F 46.0 °F 58% 30.26 in 10.0 mi East 5.8 mph - N/A   Overcast
8:53 AM 62.1 °F 46.9 °F 58% 30.27 in 10.0 mi East 8.1 mph - N/A   Overcast
9:53 AM 64.0 °F 48.0 °F 56% 30.29 in 10.0 mi East 12.7 mph - N/A   Overcast
10:53 AM 66.0 °F 48.9 °F 54% 30.29 in 10.0 mi ESE 17.3 mph 23.0 mph N/A   Overcast
11:53 AM 66.9 °F 48.9 °F 52% 30.28 in 10.0 mi ESE 15.0 mph - N/A   Overcast
12:53 PM 68.0 °F 48.9 °F 50% 30.27 in 10.0 mi ESE 16.1 mph 23.0 mph N/A   Overcast
1:53 PM 69.1 °F 50.0 °F 51% 30.24 in 10.0 mi ESE 15.0 mph 24.2 mph N/A   Overcast
2:53 PM 71.1 °F 51.1 °F 49% 30.20 in 10.0 mi ESE 18.4 mph 24.2 mph N/A   Overcast
3:53 PM 71.1 °F 51.1 °F 49% 30.18 in 10.0 mi SE 20.7 mph 26.5 mph N/A   Overcast
4:53 PM 70.0 °F 52.0 °F 53% 30.17 in 10.0 mi ESE 17.3 mph 25.3 mph N/A   Overcast
5:53 PM 70.0 °F 53.1 °F 55% 30.16 in 10.0 mi SE 16.1 mph 25.3 mph N/A   Overcast
6:53 PM 69.1 °F 53.1 °F 57% 30.16 in 10.0 mi SE 20.7 mph 26.5 mph N/A   Overcast
7:53 PM 68.0 °F 53.1 °F 59% 30.16 in 10.0 mi SE 18.4 mph - N/A   Overcast
8:53 PM 68.0 °F 54.0 °F 61% 30.18 in 10.0 mi SE 15.0 mph - N/A   Overcast
9:53 PM 66.9 °F 55.0 °F 66% 30.19 in 10.0 mi SE 12.7 mph - N/A   Overcast
10:53 PM 66.0 °F 55.9 °F 70% 30.18 in 10.0 mi SE 12.7 mph - N/A   Mostly Cloudy
11:24 PM 66.2 °F 55.4 °F 68% 30.19 in 10.0 mi SE 9.2 mph - N/A   Overcast
11:53 PM 66.0 °F 55.9 °F 70% 30.19 in 10.0 mi SE 9.2 mph - N/A   Overcast